TimePST,TemperatureF,Dew PointF,Humidity,Sea Level PressureIn,VisibilityMPH,Wind Direction,Wind SpeedMPH,Gust SpeedMPH,PrecipitationIn,Events,Conditions,WindDirDegrees,DateUTC
12:56 AM,45.0,39.9,82,30.13,10.0,South,6.9,-,N/A,,Mostly Cloudy,180,2013-12-18 08:56:00
1:56 AM,48.0,41.0,77,30.13,10.0,WSW,16.1,-,N/A,,Overcast,240,2013-12-18 09:56:00
2:56 AM,48.0,41.0,77,30.14,10.0,WSW,18.4,28.8,N/A,,Overcast,250,2013-12-18 10:56:00
3:56 AM,48.9,39.9,71,30.12,10.0,WSW,13.8,-,N/A,,Overcast,250,2013-12-18 11:56:00
4:56 AM,48.0,39.9,74,30.11,10.0,WSW,21.9,-,N/A,,Overcast,250,2013-12-18 12:56:00
5:56 AM,48.0,37.9,68,30.10,10.0,West,20.7,26.5,N/A,,Overcast,260,2013-12-18 13:56:00
6:56 AM,48.0,37.9,68,30.09,8.0,West,21.9,31.1,N/A,,Overcast,260,2013-12-18 14:56:00
7:56 AM,46.9,35.1,63,30.10,8.0,West,26.5,33.4,N/A,,Overcast,270,2013-12-18 15:56:00
8:56 AM,46.0,33.1,61,30.11,10.0,West,24.2,33.4,N/A,,Mostly Cloudy,280,2013-12-18 16:56:00
9:56 AM,46.9,33.1,59,30.11,10.0,WNW,9.2,-,N/A,,Mostly Cloudy,300,2013-12-18 17:56:00
10:56 AM,48.0,34.0,58,30.10,10.0,West,9.2,-,N/A,,Mostly Cloudy,280,2013-12-18 18:56:00
11:56 AM,46.9,32.0,56,30.08,10.0,WNW,15.0,19.6,N/A,,Mostly Cloudy,290,2013-12-18 19:56:00
12:56 PM,48.0,34.0,58,30.06,10.0,West,17.3,-,N/A,,Scattered Clouds,280,2013-12-18 20:56:00
1:56 PM,45.0,34.0,65,30.06,10.0,NNE,10.4,-,N/A,,Mostly Cloudy,30,2013-12-18 21:56:00
2:56 PM,44.1,33.1,65,30.07,10.0,NE,10.4,-,N/A,,Mostly Cloudy,40,2013-12-18 22:56:00
3:56 PM,42.1,32.0,67,30.09,10.0,NNE,9.2,-,N/A,,Mostly Cloudy,30,2013-12-18 23:56:00
4:56 PM,39.9,32.0,73,30.10,10.0,East,4.6,-,N/A,,Mostly Cloudy,90,2013-12-19 00:56:00
5:56 PM,42.1,28.9,60,30.11,10.0,NNE,5.8,-,0.00,Rain,Light Rain,20,2013-12-19 01:56:00
6:06 PM,42.1,28.9,60,30.09,10.0,North,8.1,-,0.00,,Mostly Cloudy,10,2013-12-19 02:06:00
6:56 PM,39.0,30.0,70,30.12,10.0,SSE,4.6,-,0.00,,Mostly Cloudy,150,2013-12-19 02:56:00
7:40 PM,39.0,30.0,70,30.11,10.0,SSE,3.5,-,0.00,Rain,Light Rain,150,2013-12-19 03:40:00
7:56 PM,39.0,30.0,70,30.13,10.0,NE,6.9,-,0.00,Rain,Light Rain,50,2013-12-19 03:56:00
8:10 PM,37.9,30.0,73,30.13,10.0,North,4.6,-,0.00,,Mostly Cloudy,10,2013-12-19 04:10:00
8:56 PM,36.0,30.0,79,30.17,10.0,North,5.8,-,0.00,,Scattered Clouds,10,2013-12-19 04:56:00
9:56 PM,36.0,30.0,79,30.19,10.0,ENE,3.5,-,N/A,,Partly Cloudy,60,2013-12-19 05:56:00
10:56 PM,35.1,28.0,76,30.20,10.0,ENE,3.5,-,N/A,,Partly Cloudy,60,2013-12-19 06:56:00
11:56 PM,37.0,25.0,62,30.22,10.0,North,4.6,-,N/A,,Clear,10,2013-12-19 07:56:00